This demonstration page uses our WeatherBlox Daily Observations layout. Learn more.

Hourly Observations for January 8, 2017

Temp ( °F °C ) Dew Point ( °F °C ) Humidity (%) Winds ( mph kmh ) Pressure ( in mb ) Visibility ( mi km ) Precip ( " mm )
12:54 am 00:54 Clear 1 -17.2 -3 -19.4 83 83 Calm 30.7 1040 10 16.0934 0 0
1:54 am 01:54 Clear 0 -17.8 -5 -20.6 79 79 Calm 30.7 1040 10 16.0934 0 0
2:54 am 02:54 Clear 0 -17.8 -4 -20 83 83 Calm 30.69 1039 10 16.0934 0 0
3:54 am 03:54 Clear 3 -16.1 -1 -18.3 83 83 Calm 30.67 1039 10 16.0934 0 0
4:54 am 04:54 Clear 6 -14.4 2 -16.7 83 83 SE 3 6 30.64 1038 10 16.0934 0 0
5:54 am 05:54 Clear 12 -11.1 6 -14.4 77 77 SE 9 15 30.57 1035 10 16.0934 0 0
6:54 am 06:54 Clear 15 -9.4 9 -12.8 77 77 SSE 14 22 30.53 1034 10 16.0934 0 0
7:54 am 07:54 Cloudy 15 -9.4 9 -12.8 77 77 SSE 16 26 30.53 1034 10 16.0934 0 0
8:54 am 08:54 Cloudy 16 -8.9 10 -12.2 77 77 SSE 14 22 30.53 1034 10 16.0934 0 0
9:54 am 09:54 Mostly Sunny 19 -7.2 11 -11.7 71 71 SSE 20 31 30.48 1032 10 16.0934 0 0
10:54 am 10:54 Mostly Sunny 21 -6.1 13 -10.6 71 71 SSE 22 35 30.42 1030 10 16.0934 0 0
11:54 am 11:54 Mostly Cloudy 24 -4.4 15 -9.4 68 68 S 22 35 30.38 1029 10 16.0934 0 0
12:54 pm 12:54 Sunny 28 -2.2 17 -8.3 63 63 S 20 31 30.3 1026 10 16.0934 0 0
1:54 pm 13:54 Sunny 29 -1.7 19 -7.2 66 66 S 20 31 30.26 1025 10 16.0934 0 0
2:54 pm 14:54 Sunny 31 -0.6 21 -6.1 67 67 S 17 28 30.22 1023 10 16.0934 0 0
3:54 pm 15:54 Sunny 34 1.1 22 -5.6 61 61 SSW 14 22 30.22 1024 10 16.0934 0 0
4:54 pm 16:54 Sunny 33 0.6 21 -6.1 61 61 SW 6 9 30.23 1024 10 16.0934 0 0
5:54 pm 17:54 Clear 29 -1.7 20 -6.7 69 69 SW 7 11 30.24 1024 10 16.0934 0 0
6:54 pm 18:54 Clear 27 -2.8 19 -7.2 72 72 WSW 3 6 30.25 1024 10 16.0934 0 0
7:54 pm 19:54 Clear 27 -2.8 20 -6.7 75 75 W 5 7 30.26 1025 10 16.0934 0 0
8:54 pm 20:54 Clear 26 -3.3 19 -7.2 75 75 W 5 7 30.27 1025 10 16.0934 0 0
9:54 pm 21:54 Clear 28 -2.2 18 -7.8 66 66 WNW 13 20 30.29 1026 10 16.0934 0 0
10:54 pm 22:54 Clear 25 -3.9 14 -10 63 63 NNW 14 22 30.3 1026 10 16.0934 0 0
11:54 pm 23:54 Clear 22 -5.6 11 -11.7 63 63 NNW 8 13 30.31 1027 10 16.0934 0 0

Powered by AerisWeather